Findlay, OH

3:51 AM EST on February 20, 2018 (GMT -0500)
Findlay

Weather History for KFDY - September, 2011

Change the Weather History Date:

Monday, September 26, 2011

  Actual Average Record
Temperature  
Mean Temperature 59 °F -  
Max Temperature 68 °F 71 °F 91 °F (1998)
Min Temperature 51 °F 50 °F 37 °F (1950)
Degree Days  
Heating Degree Days 6    
Growing Degree Days 9 (Base 50)    
Moisture  
Dew Point 59 °F    
Average Humidity 89    
Maximum Humidity 100    
Minimum Humidity 61    
Precipitation  
Precipitation 1.14 in - - ()
Sea Level Pressure  
Sea Level Pressure 29.76 in    
Wind  
Wind Speed 9 mph (SE)    
Max Wind Speed 16 mph    
Max Gust Speed 24 mph    
Visibility 7 miles    
Events Rain    
Averages and records for this station are not official NWS values.
T = Trace of Precipitation, MM = Missing Value Source: NWS Daily Summary

Daily Weather History Graph

Daily Weather History Graph

Search for Another Location

Airport or City:

Trip Planner

Search our weather history database for the weather conditions in past years. The results will help you decide how hot, cold, wet, or windy it might be!

Date:

Astronomy

Sep. 26, 2011 Rise Set
Actual Time 7:25 AM EDT 7:25 PM EDT
Civil Twilight 6:58 AM EDT 7:52 PM EDT
Nautical Twilight 6:26 AM EDT 8:24 PM EDT
Astronomical Twilight 5:53 AM EDT 8:57 PM EDT
Moon 6:24 AM EDT (9/26) 6:39 PM EDT (9/26)
Length of Visible Light 12h 54m
Length of Day
11h 59m
Waning Crescent, 1% of the Moon is Illuminated
Sep 26
Waning Crescent
Sep 27
New
Oct 3
First Quarter
Oct 11
Full
Oct 19
Last Quarter

Hourly Weather History & Observations

Time (EDT) Temp. Dew Point Humidity Pressure Visibility Wind Dir Wind Speed Gust Speed Precip Events Conditions
12:53 AM 63.0 °F 61.0 °F 93% 29.82 in 6.0 mi NE 8.1 mph - 0.03 in Rain Light Rain
1:53 AM 63.0 °F 60.1 °F 90% 29.77 in 6.0 mi ENE 10.4 mph - 0.00 in   Partly Cloudy
2:53 AM 63.0 °F 60.1 °F 90% 29.77 in 5.0 mi East 9.2 mph - 0.00 in Rain Light Rain
3:53 AM 62.1 °F 61.0 °F 96% 29.76 in 3.0 mi ENE 4.6 mph - 0.09 in Rain Rain
5:26 AM 62.6 °F 62.6 °F 100% 29.77 in 2.0 mi East 6.9 mph - 0.15 in Rain Heavy Rain
5:42 AM 62.6 °F 62.6 °F 100% 29.76 in 4.0 mi East 9.2 mph - 0.18 in Rain Rain
5:53 AM 64.0 °F 62.1 °F 93% 29.73 in 5.0 mi ESE 10.4 mph - 0.20 in Rain Rain
6:51 AM 62.6 °F 62.6 °F 100% 29.76 in 2.0 mi ESE 12.7 mph - 0.21 in Rain Heavy Rain
6:53 AM 63.0 °F 62.1 °F 97% 29.75 in 2.0 mi ESE 12.7 mph - 0.22 in Rain Heavy Rain
8:10 AM 62.6 °F 60.8 °F 94% 29.76 in 4.0 mi East 6.9 mph - 0.08 in Rain Heavy Rain
8:31 AM 60.8 °F 60.8 °F 100% 29.77 in 2.5 mi ESE 4.6 mph - 0.24 in Rain Heavy Rain
8:37 AM 60.8 °F 60.8 °F 100% 29.77 in 1.8 mi ESE 6.9 mph - 0.35 in Rain Heavy Rain
8:51 AM 60.8 °F 60.8 °F 100% 29.74 in 2.5 mi East 12.7 mph - 0.48 in Rain Heavy Rain
8:53 AM 62.1 °F 60.1 °F 93% 29.73 in 3.0 mi East 12.7 mph - 0.50 in Rain Heavy Rain
9:04 AM 60.8 °F 60.8 °F 100% 29.72 in 2.5 mi East 12.7 mph - 0.04 in Rain Heavy Rain
9:31 AM 62.6 °F 60.8 °F 94% 29.71 in 4.0 mi East 16.1 mph 23.0 mph 0.10 in Rain Rain
9:53 AM 62.1 °F 61.0 °F 96% 29.70 in 5.0 mi East 15.0 mph 24.2 mph 0.10 in Rain Rain
10:15 AM 62.6 °F 60.8 °F 94% 29.72 in 9.0 mi ESE 13.8 mph 23.0 mph 0.01 in Rain Light Rain
10:34 AM 64.4 °F 62.6 °F 94% 29.73 in 10.0 mi ESE 10.4 mph - 0.01 in   Overcast
11:29 AM 66.2 °F 64.4 °F 94% 29.74 in 10.0 mi SSE 10.4 mph - N/A   Mostly Cloudy
11:40 AM 66.2 °F 64.4 °F 94% 29.74 in 10.0 mi South 11.5 mph - 0.00 in Rain Light Rain
11:48 AM 66.2 °F 64.4 °F 94% 29.74 in 10.0 mi South 9.2 mph - 0.00 in   Mostly Cloudy
11:53 AM 66.0 °F 64.0 °F 93% 29.72 in 10.0 mi SSW 9.2 mph - 0.00 in   Mostly Cloudy
12:53 PM 64.0 °F 60.1 °F 87% 29.76 in 10.0 mi WSW 12.7 mph - N/A   Overcast
1:26 PM 64.4 °F 59.0 °F 83% 29.78 in 10.0 mi SW 11.5 mph - N/A   Overcast
1:53 PM 66.0 °F 57.9 °F 75% 29.76 in 10.0 mi SW 15.0 mph - N/A   Overcast
2:53 PM 64.0 °F 55.9 °F 75% 29.76 in 10.0 mi WSW 10.4 mph - N/A   Overcast
3:14 PM 66.2 °F 55.4 °F 68% 29.78 in 10.0 mi Variable 6.9 mph - N/A   Mostly Cloudy
3:53 PM 66.0 °F 54.0 °F 65% 29.75 in 10.0 mi SW 6.9 mph - N/A   Scattered Clouds
4:53 PM 66.9 °F 53.1 °F 61% 29.75 in 10.0 mi SW 5.8 mph - N/A   Scattered Clouds
5:53 PM 64.0 °F 53.1 °F 67% 29.76 in 10.0 mi SSW 8.1 mph - N/A   Partly Cloudy
6:53 PM 64.0 °F 53.1 °F 67% 29.77 in 10.0 mi SW 4.6 mph - N/A   Mostly Cloudy
7:53 PM 59.0 °F 52.0 °F 78% 29.78 in 10.0 mi SSW 3.5 mph - N/A   Clear
8:53 PM 55.9 °F 52.0 °F 87% 29.80 in 10.0 mi SW 4.6 mph - N/A   Scattered Clouds
9:53 PM 55.0 °F 50.0 °F 83% 29.82 in 10.0 mi WSW 3.5 mph - N/A   Clear
10:53 PM 52.0 °F 48.9 °F 89% 29.83 in 10.0 mi Calm Calm - N/A   Clear
11:53 PM 51.1 °F 48.9 °F 92% 29.85 in 10.0 mi SSE 4.6 mph - N/A   Clear